Left ArrowRight Arrow

Hourly Observations for June 5, 2018

Temp ( °F °C ) Dew Point ( °F °C ) Humidity (%) Winds ( mph kmh ) Pressure ( in mb ) Visibility ( mi km ) Precip ( " mm )
12:15 am 00:15 Clear 60 15.3 49 9.7 69 69 SW 6 9 29.94 1014 10 16 0.00 0.00
12:35 am 00:35 Clear 60 15.5 49 9.3 67 67 WSW 6 9 29.94 1014 10 16 0.00 0.00
12:55 am 00:55 Clear 60 15.5 48 9 65 65 SW 6 9 29.94 1014 10 16 0.00 0.00
1:15 am 01:15 Clear 60 15.5 48 9 65 65 SW 6 9 29.94 1014 10 16 0.00 0.00
1:35 am 01:35 Clear 60 15.6 48 8.8 64 64 SW 6 9 29.94 1014 10 16 0.00 0.00
1:55 am 01:55 Clear 60 15.7 48 8.7 63 63 SW 6 9 29.94 1014 10 16 0.00 0.00
2:15 am 02:15 Clear 61 16 47 8.6 62 62 WSW 7 11 29.91 1013 10 16 0.00 0.00
2:35 am 02:35 Clear 61 16.2 47 8.6 61 61 WSW 7 11 29.91 1013 10 16 0.00 0.00
2:55 am 02:55 Clear 61 16 48 8.7 62 62 WSW 7 11 29.91 1013 10 16 0.00 0.00
3:15 am 03:15 Clear 61 16.1 48 8.8 62 62 WSW 6 9 29.91 1013 10 16 0.00 0.00
3:35 am 03:35 Clear 60 15.8 48 9 64 64 WSW 6 9 29.91 1013 10 16 0.00 0.00
3:55 am 03:55 Clear 60 15.5 49 9.2 66 66 WSW 7 11 29.91 1013 10 16 0.00 0.00
4:15 am 04:15 Clear 60 15.5 49 9.2 66 66 WSW 8 13 29.91 1013 10 16 0.00 0.00
4:35 am 04:35 Clear 60 15.7 49 9.2 65 65 W 6 9 29.91 1013 10 16 0.00 0.00
4:55 am 04:55 Clear 60 15.6 49 9.3 66 66 WSW 7 11 29.91 1013 10 16 0.00 0.00
5:15 am 05:15 Clear 60 15.5 49 9.2 66 66 WSW 7 11 29.91 1013 10 16 0.00 0.00
5:35 am 05:35 Clear 60 15.4 49 9.3 67 67 WSW 6 9 29.91 1013 10 16 0.00 0.00
5:55 am 05:55 Clear 59 15.2 49 9.2 68 68 WSW 7 11 29.91 1013 10 16 0.00 0.00
6:15 am 06:15 Clear 60 15.5 48 9.1 66 66 W 6 9 29.91 1013 10 16 0.00 0.00
6:35 am 06:35 Partly Cloudy 59 15.2 49 9.2 68 68 W 6 9 29.91 1013 10 16 0.00 0.00
6:55 am 06:55 Mostly Cloudy 60 15.7 49 9.5 67 67 WSW 6 9 29.91 1013 10 16 0.00 0.00
7:15 am 07:15 Cloudy 62 16.4 49 9.6 64 64 W 8 13 29.94 1014 10 16 0.00 0.00
7:35 am 07:35 Cloudy 63 17 49 9.7 62 62 W 10 17 29.94 1014 10 16 0.00 0.00
7:55 am 07:55 Mostly Cloudy 64 17.5 50 10 62 62 WNW 6 9 29.94 1014 10 16 0.00 0.00
8:15 am 08:15 Partly Cloudy 65 18.1 51 10.3 61 61 WNW 7 11 29.94 1014 10 16 0.00 0.00
8:35 am 08:35 Sunny 66 18.8 51 10.6 59 59 WNW 8 13 29.94 1014 10 16 0.00 0.00
8:55 am 08:55 Sunny 66 18.7 51 10.7 60 60 WNW 9 15 29.94 1014 10 16 0.00 0.00
9:15 am 09:15 Sunny 67 19.3 52 10.9 58 58 WNW 8 13 29.94 1014 10 16 0.00 0.00
9:35 am 09:35 Sunny 67 19.5 52 10.9 58 58 W 8 13 29.94 1014 10 16 0.00 0.00
9:55 am 09:55 Sunny 69 20.6 51 10.8 54 54 W 8 13 29.91 1013 10 16 0.00 0.00
10:15 am 10:15 Sunny 71 21.6 52 10.9 51 51 W 9 15 29.91 1013 10 16 0.00 0.00
10:35 am 10:35 Mostly Cloudy 73 22.7 50 9.8 44 44 WNW 12 19 29.88 1012 10 16 0.00 0.00
10:55 am 10:55 Mostly Cloudy 73 23 49 9.7 43 43 WNW 12 19 29.88 1012 10 16 0.00 0.00
11:15 am 11:15 Partly Cloudy 74 23.4 50 9.8 42 42 W 12 19 29.88 1012 10 16 0.00 0.00
11:35 am 11:35 Partly Cloudy 77 25.1 50 10.1 39 39 WNW 12 19 29.88 1012 10 16 0.00 0.00
11:55 am 11:55 Sunny 78 25.8 47 8.6 34 34 W 21 33 29.88 1012 10 16 0.00 0.00
12:15 pm 12:15 Sunny 78 25.8 46 8 32 32 W 16 26 29.85 1011 10 16 0.00 0.00
12:35 pm 12:35 Sunny 80 26.6 47 8.3 31 31 W 18 30 29.85 1011 10 16 0.00 0.00
12:55 pm 12:55 Sunny 80 26.8 46 7.7 30 30 W 18 30 29.85 1011 10 16 0.00 0.00
1:15 pm 13:15 Sunny 81 27.1 47 8.6 31 31 W 16 26 29.85 1011 10 16 0.00 0.00
1:35 pm 13:35 Sunny 81 27.4 47 8.5 30 30 W 16 26 29.85 1011 10 16 0.00 0.00
1:55 pm 13:55 Sunny 82 27.9 49 9.2 31 31 W 15 24 29.83 1010 10 16 0.00 0.00
2:15 pm 14:15 Sunny 82 27.5 49 9.4 32 32 W 21 33 29.83 1010 10 16 0.00 0.00
2:35 pm 14:35 Sunny 82 27.7 49 9.4 32 32 W 20 31 29.83 1010 10 16 0.00 0.00
2:55 pm 14:55 Sunny 83 28.5 49 9.6 31 31 W 15 24 29.80 1009 10 16 0.00 0.00
3:15 pm 15:15 Sunny 83 28.6 49 9.6 30 30 W 20 31 29.77 1008 10 16 0.00 0.00
3:35 pm 15:35 Sunny 84 28.7 50 9.9 31 31 W 15 24 29.77 1008 10 16 0.00 0.00
3:55 pm 15:55 Sunny 84 29.1 50 10.1 31 31 W 14 22 29.77 1008 10 16 0.00 0.00
4:15 pm 16:15 Sunny 84 29.1 50 10 30 30 WSW 20 31 29.74 1007 10 16 0.00 0.00
4:35 pm 16:35 Sunny 85 29.5 51 10.6 31 31 W 20 31 29.74 1007 10 16 0.00 0.00
4:55 pm 16:55 Partly Cloudy 85 29.7 52 11 31 31 WSW 18 30 29.74 1007 10 16 0.00 0.00
5:15 pm 17:15 Mostly Cloudy 83 28.6 51 10.6 33 33 W 20 31 29.74 1007 10 16 0.00 0.00
5:35 pm 17:35 Mostly Cloudy with Light Rain 73 22.9 60 15.4 63 63 WNW 6 9 29.77 1008 5 8 0.06 1.52
5:55 pm 17:55 Cloudy 73 22.7 61 16.1 66 66 W 6 9 29.80 1009 10 16 0.06 1.52
6:15 pm 18:15 Cloudy 74 23.6 60 15.8 62 62 W 9 15 29.80 1009 10 16 0.00 0.00
6:35 pm 18:35 Mostly Cloudy 76 24.3 61 16.3 61 61 N 9 15 29.80 1009 10 16 0.00 0.00
6:55 pm 18:55 Mostly Cloudy 74 23.2 63 17.3 70 70 N 13 20 29.80 1009 10 16 0.00 0.00
7:15 pm 19:15 Mostly Cloudy 73 22.6 61 16.2 67 67 NNE 13 20 29.80 1009 10 16 0.00 0.00
7:35 pm 19:35 Mostly Cloudy with Light Rain 70 21.2 62 16.8 76 76 N 7 11 29.80 1009 5 8 0.01 0.25
7:55 pm 19:55 Mostly Cloudy 70 21 63 17.3 80 80 NNW 5 7 29.80 1009 10 16 0.01 0.25
8:15 pm 20:15 Cloudy 70 20.9 61 16.2 75 75 N 12 19 29.83 1010 10 16 0.00 0.00
8:35 pm 20:35 Cloudy with Thunderstorms 66 18.9 60 15.6 81 81 N 10 17 29.85 1011 10 16 0.02 0.51
8:55 pm 20:55 Mostly Cloudy 65 18.5 60 15.5 83 83 N 8 13 29.85 1011 10 16 0.02 0.51
9:15 pm 21:15 Mostly Cloudy 64 18 59 15.1 83 83 NNW 7 11 29.85 1011 10 16 0.00 0.00
9:35 pm 21:35 Cloudy 64 17.6 59 15.1 85 85 NNW 7 11 29.88 1012 10 16 0.00 0.00
9:55 pm 21:55 Cloudy 64 17.5 59 14.9 85 85 NNW 6 9 29.88 1012 10 16 0.00 0.00
10:15 pm 22:15 Cloudy 63 17.2 58 14.4 84 84 NNW 7 11 29.88 1012 10 16 0.00 0.00
10:35 pm 22:35 Cloudy 62 16.8 57 14 84 84 NNW 7 11 29.91 1013 10 16 0.00 0.00
10:55 pm 22:55 Cloudy 62 16.8 56 13.1 79 79 NNW 8 13 29.91 1013 10 16 0.00 0.00
11:15 pm 23:15 Mostly Cloudy 62 16.4 55 12.5 78 78 NNW 8 13 29.91 1013 10 16 0.00 0.00
11:35 pm 23:35 Mostly Cloudy 61 16.1 53 11.8 76 76 NNW 9 15 29.91 1013 10 16 0.00 0.00
11:55 pm 23:55 Mostly Cloudy 60 15.6 52 11 74 74 NNW 7 11 29.91 1013 10 16 0.00 0.00

Powered by Vaisala Xweather